Location: Boiro
(42.6475°N, 8.8834°W)
Time: 06:30:24
(UTC+02:00)

SL-8 DEB - Pass Details

Date: 10 July 2022
Orbit: 890 x 1013 km, 83.1° (Epoch: 16 August)

Event Time Altitude Azimuth Distance (km) Brightness Sun altitude
Rises 00:14:32 0° 355° (N) 3,572 ? -16.8°
Reaches altitude 10° 00:17:04 10° 359° (N) 2,610 ? -17.1°
Maximum altitude 00:22:55 61° 80° (E) 1,014 ? -17.7°
Enters shadow 00:25:45 30° 149° (SSE) 1,539 ? -18.0°
